Showing default

AGILA, 62456

Orbit data source: Space-Track

AGILA, 62456 is a UK payload satellite in GEO that was launched on Sun, 29 Dec 2024 UTC via an FALCON 9 launch vehicle from the Air Force Eastern Test Range (AFETR). Payload-class satellites include a variety of spacecraft equipped with specific instruments for various scientific and technological missions. These include communications satellites like Starlink; space stations such as the ISS; scientific satellites like the Hubble; Earth observation satellites from companies like Planet Labs, Umbra, and HawkEye 360; GPS; miniature CubeSats for education and research; and military/defense satellites.

Not visible in the next 10 days
Identifier
62456, 2024-252C
Orbit
GEO
Country
Flag of UKUK
Related business
Manufacturer
Astranis
Mission
Operational Commercial Communications
Bus & Motor
MICROGEO, EP
Mass
400 kg wet, 400 kg dry
Launch date (UTC)
2024-12-29 (1 year ago)
Launch vehicle
FALCON 9
Launch site
Air Force Eastern Test Range (AFETR)
Object type
Payload
Rocket body
Debris
Shape & HBR
Box + 22 Pan, 5.0 m
Radar Cross Section
41.175 m², Large (>1 m²)

Expand to show TLE details & history
Last TLE update: 1 day ago

TLE from 1 day ago
0 AGILA
1 62456U 24252C   26162.97614265 -.00000166  00000-0  00000-0 0  9999
2 62456   0.0629 124.3080 0000796 352.8202 286.7455  1.00270659  5107
Epoch: 2026-06-11T23:25Z
TLE epoch observation values (Epoch: 2026-06-11T23:25:38.724Z)
Latitude
-0.03246°
Longitude
152.13083°
Altitude
35,785.424 km
Speed
3.075 km/s
True Right ascension
02h 55m 25s
True Declination
0° 01' 57"
Sunlit
Object was in daylight at epoch
Visualization orbit readout
Latitude
Unknown
Longitude
Unknown
Altitude
Unknown
Speed
Unknown
Apparent Right ascension
Unknown
Apparent Declination
Unknown
Sunlit
N/A
Visualization observer readout
Local Sidereal Time
19:12:28
Azimuth
Unknown
Elevation
Unknown
Doppler factor
Unknown
Orbital elements
Apogee altitude
35,791.337 km
Perigee altitude
35,784.625 km
Semi-major axis
42,166.118 km
Eccentricity
0.00008
Inclination
0.0629°
RAAN
124.308°
Arg. of periapsis
352.8202°
True anomaly
286.73677°
Mean anomaly
286.7455°
Eccentric anomaly
286.74113°
Mean motion
0.25067 °/min
Orbital period
1,436.17 mins
BSTAR
0
Loading maneuver chart data...
Computing Atmospheric mass density...
Loading historical data...
Loading historical data...
Loading historical data...
Loading historical data...
Loading historical data...
Loading historical data...
Loading historical data...
Other satellites on launch #252 in the year 2024 (2024-12-29 UTC)

Documentation

Showing up to 5 results
|